<?xml version="1.0" encoding="UTF-8" standalone="no" ?>
<gpx xmlns="http://www.topografix.com/GPX/1/1" xmlns:xsi="http://www.w3.org/2001/XMLSchema-instance" xsi:schemaLocation="http://www.topografix.com/GPX/1/1 http://www.topografix.com/GPX/1/1/gpx.xsd" version="1.1" creator="VisuGPX - https://www.visugpx.com">
  <metadata>
    <name>labege-escalquens-chantecaille-bitume-6,7</name>
  </metadata>
  <trk>
    <name><![CDATA[labege-escalquens-chantecaille-bitume-6,7_1]]></name>
    <trkseg>
      <trkpt lat="43.53079" lon="1.53008">
        <ele>153</ele>
        <time>2021-12-17T18:36:21+01:00</time>
      </trkpt>
      <trkpt lat="43.53051" lon="1.53002">
        <ele>153</ele>
        <time>2021-12-17T18:36:54+01:00</time>
      </trkpt>
      <trkpt lat="43.53004" lon="1.53149">
        <ele>154</ele>
        <time>2021-12-17T18:39:18+01:00</time>
      </trkpt>
      <trkpt lat="43.53169" lon="1.5333">
        <ele>157</ele>
        <time>2021-12-17T18:43:50+01:00</time>
      </trkpt>
      <trkpt lat="43.52981" lon="1.53537">
        <ele>158</ele>
        <time>2021-12-17T18:48:36+01:00</time>
      </trkpt>
      <trkpt lat="43.53027" lon="1.53626">
        <ele>159</ele>
        <time>2021-12-17T18:50:17+01:00</time>
      </trkpt>
      <trkpt lat="43.52972" lon="1.53711">
        <ele>159</ele>
        <time>2021-12-17T18:51:52+01:00</time>
      </trkpt>
      <trkpt lat="43.52885" lon="1.53798">
        <ele>159</ele>
        <time>2021-12-17T18:53:55+01:00</time>
      </trkpt>
      <trkpt lat="43.52952" lon="1.53965">
        <ele>167</ele>
        <time>2021-12-17T18:57:56+01:00</time>
      </trkpt>
      <trkpt lat="43.52954" lon="1.53987">
        <ele>168</ele>
        <time>2021-12-17T18:58:24+01:00</time>
      </trkpt>
      <trkpt lat="43.5291" lon="1.54026">
        <ele>168</ele>
        <time>2021-12-17T18:59:24+01:00</time>
      </trkpt>
      <trkpt lat="43.52913" lon="1.54058">
        <ele>170</ele>
        <time>2021-12-17T19:00:11+01:00</time>
      </trkpt>
      <trkpt lat="43.52878" lon="1.54089">
        <ele>170</ele>
        <time>2021-12-17T19:00:59+01:00</time>
      </trkpt>
      <trkpt lat="43.52866" lon="1.5409">
        <ele>169</ele>
        <time>2021-12-17T19:01:13+01:00</time>
      </trkpt>
      <trkpt lat="43.52839" lon="1.54127">
        <ele>170</ele>
        <time>2021-12-17T19:02:07+01:00</time>
      </trkpt>
      <trkpt lat="43.52843" lon="1.54148">
        <ele>172</ele>
        <time>2021-12-17T19:02:45+01:00</time>
      </trkpt>
      <trkpt lat="43.52825" lon="1.54159">
        <ele>172</ele>
        <time>2021-12-17T19:03:08+01:00</time>
      </trkpt>
      <trkpt lat="43.52765" lon="1.542">
        <ele>173</ele>
        <time>2021-12-17T19:04:35+01:00</time>
      </trkpt>
      <trkpt lat="43.52675" lon="1.54274">
        <ele>172</ele>
        <time>2021-12-17T19:06:34+01:00</time>
      </trkpt>
      <trkpt lat="43.52639" lon="1.54412">
        <ele>183</ele>
        <time>2021-12-17T19:10:29+01:00</time>
      </trkpt>
      <trkpt lat="43.52606" lon="1.54461">
        <ele>185</ele>
        <time>2021-12-17T19:11:46+01:00</time>
      </trkpt>
      <trkpt lat="43.52662" lon="1.54568">
        <ele>201</ele>
        <time>2021-12-17T19:16:21+01:00</time>
      </trkpt>
      <trkpt lat="43.52803" lon="1.54725">
        <ele>210</ele>
        <time>2021-12-17T19:21:21+01:00</time>
      </trkpt>
      <trkpt lat="43.52804" lon="1.54754">
        <ele>209</ele>
        <time>2021-12-17T19:21:45+01:00</time>
      </trkpt>
      <trkpt lat="43.52683" lon="1.5498">
        <ele>218</ele>
        <time>2021-12-17T19:27:11+01:00</time>
      </trkpt>
      <trkpt lat="43.52669" lon="1.55001">
        <ele>219</ele>
        <time>2021-12-17T19:27:45+01:00</time>
      </trkpt>
      <trkpt lat="43.52738" lon="1.55069">
        <ele>204</ele>
        <time>2021-12-17T19:29:22+01:00</time>
      </trkpt>
      <trkpt lat="43.52742" lon="1.5509">
        <ele>202</ele>
        <time>2021-12-17T19:29:40+01:00</time>
      </trkpt>
      <trkpt lat="43.5257" lon="1.55611">
        <ele>197</ele>
        <time>2021-12-17T19:37:35+01:00</time>
      </trkpt>
      <trkpt lat="43.52719" lon="1.55883">
        <ele>200</ele>
        <time>2021-12-17T19:42:48+01:00</time>
      </trkpt>
      <trkpt lat="43.52824" lon="1.55959">
        <ele>192</ele>
        <time>2021-12-17T19:45:04+01:00</time>
      </trkpt>
      <trkpt lat="43.52913" lon="1.55725">
        <ele>188</ele>
        <time>2021-12-17T19:48:43+01:00</time>
      </trkpt>
      <trkpt lat="43.52939" lon="1.55489">
        <ele>185</ele>
        <time>2021-12-17T19:52:01+01:00</time>
      </trkpt>
      <trkpt lat="43.53067" lon="1.55218">
        <ele>182</ele>
        <time>2021-12-17T19:56:29+01:00</time>
      </trkpt>
      <trkpt lat="43.53102" lon="1.55209">
        <ele>180</ele>
        <time>2021-12-17T19:57:11+01:00</time>
      </trkpt>
      <trkpt lat="43.53112" lon="1.55182">
        <ele>180</ele>
        <time>2021-12-17T19:57:36+01:00</time>
      </trkpt>
      <trkpt lat="43.53101" lon="1.55139">
        <ele>180</ele>
        <time>2021-12-17T19:58:14+01:00</time>
      </trkpt>
      <trkpt lat="43.53263" lon="1.54798">
        <ele>177</ele>
        <time>2021-12-17T20:03:52+01:00</time>
      </trkpt>
      <trkpt lat="43.5331" lon="1.54695">
        <ele>176</ele>
        <time>2021-12-17T20:05:33+01:00</time>
      </trkpt>
      <trkpt lat="43.52966" lon="1.54476">
        <ele>197</ele>
        <time>2021-12-17T20:16:23+01:00</time>
      </trkpt>
      <trkpt lat="43.52951" lon="1.54423">
        <ele>196</ele>
        <time>2021-12-17T20:17:10+01:00</time>
      </trkpt>
      <trkpt lat="43.52982" lon="1.54365">
        <ele>195</ele>
        <time>2021-12-17T20:18:10+01:00</time>
      </trkpt>
      <trkpt lat="43.53137" lon="1.54121">
        <ele>195</ele>
        <time>2021-12-17T20:22:40+01:00</time>
      </trkpt>
      <trkpt lat="43.53214" lon="1.54181">
        <ele>195</ele>
        <time>2021-12-17T20:24:21+01:00</time>
      </trkpt>
      <trkpt lat="43.5326" lon="1.54098">
        <ele>195</ele>
        <time>2021-12-17T20:25:48+01:00</time>
      </trkpt>
      <trkpt lat="43.53174" lon="1.53891">
        <ele>178</ele>
        <time>2021-12-17T20:29:06+01:00</time>
      </trkpt>
      <trkpt lat="43.52977" lon="1.53539">
        <ele>158</ele>
        <time>2021-12-17T20:35:15+01:00</time>
      </trkpt>
      <trkpt lat="43.53163" lon="1.53328">
        <ele>157</ele>
        <time>2021-12-17T20:39:50+01:00</time>
      </trkpt>
      <trkpt lat="43.52999" lon="1.5315">
        <ele>154</ele>
        <time>2021-12-17T20:43:49+01:00</time>
      </trkpt>
      <trkpt lat="43.53054" lon="1.52993">
        <ele>153</ele>
        <time>2021-12-17T20:46:13+01:00</time>
      </trkpt>
      <trkpt lat="43.53082" lon="1.52999">
        <ele>153</ele>
        <time>2021-12-17T20:46:45+01:00</time>
      </trkpt>
    </trkseg>
  </trk>
</gpx>